Location: ??????
(38.0131°N, 23.7723°E)
Time: 06:19:59
(UTC+00:00)

Cosmos 1470 - Pass Details

Date: 17 October 2021
Orbit: 518 x 542 km, 82.5° (Epoch: 28 November)

Event Time Altitude Azimuth Distance (km) Brightness Sun altitude
Rises 16:05:19 0° 197° (SSW) 2,687 6.7 -4.9°
Reaches altitude 10° 16:07:30 10° 202° (SSW) 1,800 5.9 -5.3°
Maximum altitude 16:11:22 52° 279° (W) 683 3.8 -6.1°
Drops below altitude 10° 16:15:16 10° 357° (N) 1,813 5.4 -6.8°
Sets 16:17:29 0° 2° (N) 2,709 6.3 -7.3°
